Location: Terni
(42.5670°N, 12.6170°E)
Time: 12:58:32
(UTC+02:00)

ISS - Visible Passes

Search period start: 11 May 2021 00:00
Search period end: 21 May 2021 00:00
Orbit: 417 x 422 km, 51.6° (Epoch: 11 May)

Date Brightness Start Highest point End Pass type
(mag) Time Alt. Az. Time Alt. Az. Time Alt. Az.
11 May -1.0 02:04:21 20° N 02:04:21 20° N 02:06:27 10° NE visible
11 May -1.0 03:39:03 10° NW 03:41:34 19° N 03:44:04 10° ENE visible
11 May -2.7 05:15:39 10° NW 05:18:57 49° NNE 05:22:15 10° ESE visible
12 May -0.7 01:18:16 14° NNE 01:18:16 14° NNE 01:19:04 10° NE visible
12 May -0.9 02:51:32 10° NW 02:53:54 18° N 02:56:17 10° NE visible
12 May -2.0 04:28:18 10° NW 04:31:26 34° NNE 04:34:35 10° E visible
13 May -0.9 02:05:02 15° NNW 02:06:15 17° N 02:08:35 10° NE visible
13 May -1.5 03:40:57 10° NW 03:43:52 26° NNE 03:46:48 10° E visible
14 May -0.9 01:18:39 18° N 01:18:39 18° N 01:21:01 10° NE visible
14 May -1.1 02:53:34 10° NW 02:56:17 22° NNE 02:58:58 10° ENE visible
14 May -3.6 04:30:06 10° NW 04:33:30 78° NE 04:36:52 10° ESE visible
14 May -2.2 21:14:49 10° S 21:17:07 17° SE 21:19:26 10° E visible
14 May -3.3 22:50:18 10° WSW 22:53:38 61° NNW 22:55:36 22° NE visible
15 May -1.0 00:28:21 10° WNW 00:30:56 20° NNW 00:33:32 10° NE visible
15 May -0.9 02:06:08 10° NW 02:08:38 19° N 02:11:08 10° ENE visible
15 May -2.8 03:42:44 10° NW 03:46:01 50° NNE 03:49:19 10° ESE visible
15 May -3.9 22:02:50 10° SW 22:06:11 83° SE 22:09:34 10° ENE visible
15 May -1.3 23:40:31 10° WNW 23:43:19 24° NNW 23:46:07 10° NE visible
16 May -0.8 01:18:37 10° NW 01:20:59 18° N 01:23:21 10° NE visible
16 May -2.1 02:55:22 10° NW 02:58:30 35° NNE 03:01:39 10° E visible
16 May -3.2 04:32:11 10° WNW 04:35:20 37° SW 04:38:28 10° SSE visible
16 May -3.6 21:15:32 10° SW 21:18:47 49° SE 21:22:04 10° ENE visible
16 May -1.7 22:52:43 10° W 22:55:44 30° NNW 22:58:45 10° NE visible
17 May -0.8 00:30:58 10° NW 00:33:19 17° N 00:35:40 10° NE visible
17 May -1.6 02:08:00 10° NW 02:10:56 26° NNE 02:13:52 10° E visible
17 May -3.9 03:45:03 13° WNW 03:47:58 63° SW 03:51:19 10° SE visible
17 May -2.3 22:04:58 10° W 22:08:11 40° NNW 22:11:24 10° NE visible
17 May -0.8 23:43:14 10° NW 23:45:39 18° N 23:48:04 10° NE visible
18 May -1.1 01:20:38 10° NW 01:22:57 21° N 01:22:57 21° N visible
18 May -3.2 21:17:22 10° WSW 21:20:41 61° NNW 21:24:01 10° NE visible
18 May -1.0 22:55:26 10° WNW 22:58:00 20° N 23:00:35 10° NE visible
19 May -1.0 00:33:12 10° NW 00:35:42 19° N 00:36:34 17° NNE visible
19 May -1.2 22:07:35 10° WNW 22:10:22 23° NNW 22:13:10 10° NE visible
19 May -0.9 23:45:40 10° NW 23:48:02 17° N 23:50:24 10° NE visible
20 May -1.0 01:22:25 10° NW 01:23:19 16° NW 01:23:19 16° NW visible
20 May -1.6 21:19:46 10° W 21:22:47 29° NNW 21:25:48 10° NE visible
20 May -0.8 22:58:02 10° NW 23:00:22 17° N 23:02:42 10° NE visible
